Location: ??????
(38.1303°N, 24.0039°E)
Time: 03:39:27
(UTC+00:00)

X-37B - Pass Details

Date: 20 June 2021
Orbit: 383 x 392 km, 45.0° (Epoch: 01 July)

Event Time Altitude Azimuth Distance (km) Brightness Sun altitude
Exits shadow 00:28:43 12° 314° (NW) 1,309 3.4 -22.0°
Maximum altitude 00:31:07 25° 9° (N) 828 2.9 -21.7°
Drops below altitude 10° 00:33:48 10° 67° (ENE) 1,406 4.1 -21.5°
Sets 00:36:06 0° 81° (E) 2,261 5.1 -21.2°
